GFSNE_prec_radar_108.txt.gz
Reflectivity
34 28 24 31 22 26 25 23 18 20 10 14 0 -1 -15 -6 10 -17 -16 -20 -20 -20 -20 -20 -20 -20 -20 -20 -20 -19 13 18 -9 -8 12 1 -16 -11
32 22 26 27 18 33 26 20 12 18 12 11 -19 -20 -10 -7 4 -17 -20 -20 -20 -20 -20 -20 -18 -14 -20 -19 6 -6 7 -19 9 6 -9 -14 -20 -20
23 32 28 23 32 27 29 26 25 25 14 4 -3 4 17 16 22 -20 -7 11 -7 -20 -17 11 -12 -15 14 -20 -4 15 -20 -17 -20 -18 -20 -20 -20 -20
15 34 32 32 34 30 31 32 30 24 -5 26 22 14 9 14 26 -2 -7 -16 -8 -20 14 -17 26 22 20 -20 -20 -20 -20 -20 -20 -20 8 -4 1 -19
15 27 30 33 34 34 27 26 22 20 25 8 -10 -4 6 7 12 4 0 -20 -20 -20 -20 -13 -20 -20 -20 -20 -20 -19 -14 20 19 23 15 24 26 24
11 7 11 24 30 30 27 21 17 1 -3 -1 -10 6 14 -0 25 -2 -20 -20 -20 -20 -20 -20 -20 -20 -16 -4 -9 4 15 26 21 17 21 -18 -15 4
-13 -14 9 18 27 28 28 22 7 27 27 18 -3 -20 -19 8 -15 -20 -20 -20 -20 -20 -14 -10 28 -2 31 29 21 28 28 -4 -3 -12 -20 -20 -20 -15
11 -4 18 9 16 25 32 20 24 7 31 18 6 -5 -20 -20 -20 -20 -20 -20 -17 -6 20 21 8 -20 -20 -14 15 11 9 -20 -20 -20 -20 -20 -20 -20
15 16 15 7 21 12 23 -1 21 10 -20 10 -20 -20 -20 -20 -20 -20 -18 1 15 14 -7 6 17 23 -1 17 11 11 16 19 -16 -4 -11 -20 -20 -14
11 -10 8 2 16 1 -2 6 3 -15 -19 -20 -20 -20 -3 2 2 5 17 14 15 7 18 28 29 31 33 12 15 6 7 -20 -20 -2 7 -20 -20 -14
7 22 1 -3 25 7 11 3 -0 5 22 18 31 26 11 9 3 -5 -6 0 14 23 37 26 6 16 -1 -14 -12 -6 -19 -16 -12 -20 -20 -20 -20 -20
26 24 31 13 18 19 3 4 29 22 19 18 13 5 4 9 9 2 7 25 19 37 14 -16 -20 -17 -20 -20 -20 -20 -20 -20 -20 -20 -20 -20 -20 -20
19 16 25 31 29 23 30 25 23 23 17 17 7 7 13 19 22 31 32 10 4 -16 -12 -15 -20 -20 -20 -20 -20 -20 -20 -20 -20 -20 -20 -20 -20 -20
27 35 36 33 18 21 12 4 9 15 7 14 24 27 22 15 24 8 -17 -18 -15 -20 -20 -20 -20 -20 -20 -20 -20 -20 -20 -20 -20 -20 -20 -20 -20 -20
23 21 26 28 27 25 24 24 19 23 25 12 18 17 17 9 -12 -20 -20 -20 -19 -18 -1 11 12 4 -17 -20 -20 -20 -20 -20 -20 -20 -20 -20 -20 -20
20 17 15 20 22 24 26 23 16 13 14 -13 5 6 6 -12 -8 -20 -20 -18 2 14 7 -9 -19 -20 -20 -20 -20 -20 -20 -20 -20 -20 -20 -20 -20 -20
12 16 19 19 20 18 17 18 15 17 15 1 -3 5 9 8 0 -4 1 5 -2 -12 -11 -11 -19 -20 -20 -20 -20 -20 -20 -20 -20 -20 -20 -20 -20 -20
10 15 16 16 16 15 18 19 18 18 14 11 12 8 8 7 11 7 -10 -19 -16 -20 -20 -20 -20 -20 -20 -20 -20 -20 -20 -20 -20 -20 -20 -20 -20 -20
-20 -15 1 3 8 11 13 12 7 11 12 8 -2 -3 -11 -11 -14 -16 -20 -20 -20 -20 -20 -20 -20 -20 -20 -20 -20 -20 -20 -20 -20 -20 -20 -20 -20 -20
-20 -20 -16 -3 3 3 -3 -4 -4 -4 -5 -8 -10 -11 -13 -16 -19 -20 -20 -20 -20 -20 -20 -20 -20 -20 -20 -20 -20 -20 -20 -20 -20 -20 -20 -20 -20 -20
-20 -20 -20 -20 -20 -20 -20 -20 -18 -11 -5 -6 -19 -20 -20 -20 -20 -20 -20 -20 -20 -20 -20 -20 -20 -20 -20 -20 -20 -20 -20 -20 -20 -20 -20 -20 -20 -20
-20 -20 -20 -20 -20 -20 -20 -20 -20 -20 -20 -20 -20 -20 -20 -20 -20 -20 -20 -20 -20 -20 -20 -20 -20 -20 -20 -20 -20 -20 -20 -20 -20 -20 -20 -20 -20 -20
-20 -20 -20 -20 -20 -20 -20 -20 -20 -20 -20 -20 -20 -20 -20 -20 -20 -20 -20 -20 -20 -20 -20 -20 -20 -20 -20 -20 -20 -20 -20 -20 -20 -20 -20 -20 -20 -20

GFSNE_prec_radar_111.txt.gz
Reflectivity
29 19 30 28 29 35 26 27 9 12 6 26 19 1 -12 -20 -20 -20 -20 -20 -20 -20 -20 -20 -20 -20 -20 -20 -20 -20 -20 -20 -20 -9 -7 -20 -19 2
-2 11 22 22 29 15 24 12 18 22 31 18 24 12 -18 -20 -20 -20 -13 -10 -20 -20 -20 -20 -20 -20 -20 -20 -20 -20 -20 -20 -20 -20 -6 -20 -20 -20
-5 30 28 26 19 22 23 29 26 28 28 28 15 15 18 18 13 1 6 -20 -20 -20 -20 -20 -20 -9 -20 -20 -17 -20 -20 -20 -20 -20 -20 -20 -20 -20
2 18 27 26 28 22 24 28 29 30 31 24 30 16 17 17 20 24 11 11 -10 22 18 16 -20 -10 -20 -13 -20 -20 -20 -20 -20 -20 -20 -20 -20 -20
11 16 13 23 28 31 28 28 32 33 34 29 12 18 23 20 22 21 24 25 16 21 -8 -3 -13 3 5 -4 -16 -20 -20 -20 -20 7 32 32 16 -6
-4 29 26 4 24 24 30 34 33 34 24 22 28 29 30 21 19 -1 12 -8 9 7 11 -20 -20 -20 -11 -20 -20 -20 -20 12 24 12 10 -8 -20 -20
-20 22 27 26 23 22 31 35 30 28 26 27 21 13 15 6 -19 24 15 12 32 8 -20 -20 -20 -20 -8 9 2 19 6 13 -1 -9 10 -18 -11 -20
-7 -19 -9 19 19 24 23 29 29 30 28 12 26 29 30 -16 19 -10 19 22 15 -20 -20 -20 -14 -1 3 10 10 4 -4 -20 1 3 4 1 -4 7
15 11 22 26 18 8 32 19 27 35 33 14 25 30 27 19 22 10 -12 -7 -2 -7 0 21 0 -2 30 30 16 21 16 3 9 -3 -20 -12 -2 -20
14 9 21 2 8 21 0 21 30 31 28 9 16 -1 -12 14 7 -18 -14 -18 0 27 21 9 27 3 13 22 33 25 12 4 11 4 8 -20 -20 -20
-16 17 2 15 27 11 14 4 32 3 31 23 18 23 19 -15 -2 -16 7 -4 12 29 18 4 6 21 19 20 24 19 16 13 5 -9 -20 -20 -20 -20
10 -16 17 26 21 15 22 -16 9 21 5 3 -8 18 15 8 20 24 24 9 2 29 10 12 18 29 32 33 26 -10 -20 -15 -20 -20 -20 -20 -17 1
2 1 18 26 16 17 22 6 20 6 18 2 15 30 23 22 20 24 23 25 20 23 26 25 22 11 5 -16 -20 -20 -20 -20 -20 -18 -19 -20 -20 -20
30 28 17 27 21 16 17 22 26 30 12 10 13 11 23 19 14 18 15 27 23 21 10 11 -2 -18 -20 -20 -20 -20 -20 -3 9 8 5 -10 -20 -20
22 23 25 21 21 28 26 17 20 25 18 15 13 18 18 16 -4 -7 4 5 14 12 5 0 -10 -20 -20 -20 -14 5 12 7 -17 -20 -20 -20 -20 -20
26 22 16 20 15 19 20 23 26 26 22 18 10 9 6 -19 -6 -3 -5 1 4 1 1 -4 4 1 -7 4 8 -6 -20 -20 -20 -20 -20 -20 -20 -20
17 12 13 14 9 12 16 19 21 21 20 18 13 14 10 11 16 15 16 16 15 8 0 -2 1 5 8 7 3 0 -17 -20 -20 -20 -20 -20 -20 -20
-7 -13 -13 -12 -4 5 12 17 17 15 12 13 12 12 13 11 11 11 9 10 8 6 7 7 7 7 6 4 1 -4 -17 -20 -20 -20 -20 -20 -20 -20
-20 -20 -20 -20 -15 -20 -20 -20 -20 -20 -19 -13 -1 -1 2 -1 -3 3 6 6 4 -1 -6 -14 -20 -20 -20 -20 -20 -20 -20 -20 -20 -20 -20 -20 -20 -20
-20 -20 -20 -20 -20 -20 -20 -20 -20 -20 -19 -17 -17 -18 -20 -20 -20 -20 -20 -20 -20 -20 -20 -20 -20 -20 -20 -20 -20 -20 -20 -20 -20 -20 -20 -20 -20 -20
-20 -20 -20 -20 -20 -20 -20 -20 -20 -20 -20 -20 -20 -20 -20 -20 -20 -20 -20 -20 -20 -20 -20 -20 -20 -20 -20 -20 -20 -20 -20 -20 -20 -20 -20 -20 -20 -20
-20 -20 -20 -20 -20 -20 -20 -20 -20 -20 -20 -20 -20 -20 -20 -20 -20 -20 -20 -20 -20 -20 -20 -20 -20 -20 -20 -20 -20 -20 -20 -20 -20 -20 -20 -20 -20 -17
-20 -20 -20 -20 -20 -20 -20 -20 -20 -20 -20 -20 -20 -20 -20 -20 -20 -20 -20 -20 -20 -20 -20 -20 -20 -20 -20 -20 -20 -20 -20 -20 -20 -20 -20 -20 -20 -20

GFSNE_prec_radar_114.txt.gz
Reflectivity
17 -0 13 6 14 13 21 24 22 27 18 -18 23 19 1 12 0 16 10 0 -19 -20 -20 -20 -20 -20 -20 -20 -20 -20 -20 -20 -20 -20 -20 -20 4 1
13 -6 13 7 18 14 17 22 29 12 23 17 26 25 14 5 -15 -5 -7 -1 -20 -20 -20 -20 -20 -20 -20 -20 -20 -20 -20 -20 -20 -20 -20 -20 -20 -20
-9 -9 1 -3 -12 11 6 27 17 21 21 21 25 25 29 7 -12 -20 -20 -20 -20 -20 -15 -20 -20 -20 -20 -20 -20 -20 -20 -20 -20 -20 -20 -20 -20 -9
-20 10 -1 -18 -5 7 17 20 25 -5 21 29 22 25 26 24 4 -20 -20 -20 -20 -15 -20 -20 -20 -20 -20 -20 -20 -20 -20 -20 -20 -20 -20 -20 5 9
1 3 10 9 13 26 28 22 -4 20 24 27 27 31 23 20 -19 -11 -17 1 14 14 -14 -5 -13 -18 -10 10 9 -2 -20 -20 -20 -19 -20 -18 -3 6
-6 -16 6 10 -17 16 15 27 19 26 25 32 23 33 24 17 20 17 26 21 26 29 27 20 17 -13 -4 6 6 -7 -20 -20 4 4 -8 2 9 5
-20 -20 7 9 5 -17 19 29 6 23 29 29 33 32 21 16 20 25 26 24 14 -1 -13 4 -6 3 12 -12 -16 -18 -20 -7 13 29 22 12 18 14
16 -7 -20 14 18 17 16 24 23 22 22 24 30 28 24 25 20 27 33 25 21 15 12 19 28 27 -9 -20 3 5 -7 14 -7 -17 3 17 10 -2
10 -5 4 14 17 3 26 33 28 21 32 31 31 26 31 26 33 29 18 21 16 8 28 21 27 1 -13 14 8 1 -6 5 9 20 11 10 12 -18
-10 -5 -15 14 14 8 3 1 24 24 22 31 28 23 20 24 24 25 27 23 29 28 18 -1 10 -10 -4 9 12 2 9 5 15 13 18 13 8 -18
-6 -20 13 4 22 6 -0 8 22 32 36 34 38 37 33 35 32 18 15 21 -2 12 16 1 -5 13 17 10 18 17 10 15 14 17 19 -15 -20 -20
7 1 32 14 30 16 -5 -4 16 24 9 23 15 27 32 26 24 23 26 3 -16 12 -2 11 8 3 21 27 26 17 14 7 -16 -20 -20 -20 -20 -20
15 20 22 28 24 33 19 8 30 8 13 -2 -5 24 25 26 4 7 10 22 19 28 23 32 31 24 18 16 19 15 15 8 -0 -20 -20 -20 -20 -20
23 20 26 30 39 24 21 26 22 23 9 3 -11 12 17 22 27 23 36 29 31 37 29 23 22 20 21 19 14 11 8 5 -18 -20 -20 -20 -14 -5
26 27 23 24 29 32 25 25 24 16 21 21 15 19 18 15 15 21 20 21 20 24 24 21 19 22 13 10 5 2 3 -2 -19 -5 -11 -1 -2 -12
17 25 28 27 27 26 26 24 22 20 19 20 22 20 17 18 23 23 23 22 16 14 16 15 14 9 10 -0 -5 0 10 13 12 8 -5 -20 -20 -20
10 17 18 21 23 22 21 18 18 18 17 16 17 20 19 18 17 18 19 20 18 15 2 1 9 13 15 11 7 6 3 -12 -20 -20 -20 -20 -20 -20
-18 -20 -8 9 10 12 16 16 10 6 -2 -14 -11 -6 3 10 13 13 11 12 12 12 6 2 4 6 2 -3 -20 -20 -20 -20 -20 -20 -20 -20 -20 -20
-20 -20 -20 -20 -7 -9 -19 -3 9 10 2 -13 -2 -8 -17 -6 -7 -1 0 -1 -2 -3 -10 -16 -15 -16 -20 -20 -20 -19 -19 -20 -20 -20 -20 -20 -20 -20
-20 -20 -20 -20 -20 -20 -20 -20 -20 -20 -20 -20 -20 -20 -20 -20 -20 -18 -20 -20 -20 -20 -20 -20 -20 -20 -20 -20 -20 -20 -20 -20 -20 -20 -20 -20 -20 -20
-20 -20 -20 -20 -20 -20 -20 -20 -20 -20 -20 -20 -20 -20 -20 -20 -20 -20 -20 -20 -20 -20 -20 -20 -20 -20 -20 -20 -20 -20 -20 -20 -20 -20 -20 -20 -20 -20
-20 -20 -20 -20 -20 -20 -20 -20 -20 -20 -20 -20 -20 -20 -20 -20 -20 -20 -20 -20 -20 -20 -20 -20 -20 -20 -20 -20 -20 -20 -20 -20 -20 -20 -20 -18 -15 -17
-20 -20 -20 -20 -20 -20 -20 -20 -20 -20 -20 -20 -20 -20 -20 -20 -20 -20 -20 -20 -20 -20 -20 -20 -20 -20 -20 -20 -20 -20 -20 -20 -20 -20 -20 -20 -20 -20

GFSNE_prec_radar_117.txt.gz
Reflectivity
16 6 5 -20 -17 1 13 12 19 29 6 11 -15 -11 7 17 24 -20 -20 -20 -20 -20 -20 -20 -20 -20 -20 -20 -20 -20 -20 -20 -20 -20 -3 -13 -20 -20
7 11 -18 -8 -6 4 7 3 24 31 30 10 5 27 16 3 23 4 -20 -20 -20 -20 -20 -20 -6 -20 -20 -20 -10 -20 -17 -20 -20 -20 -20 -20 -20 -20
-13 7 -15 -5 1 8 -5 -3 -6 -6 20 21 1 20 21 20 24 17 -15 -20 -20 -20 -20 -20 -6 -20 -20 -20 -6 -4 -20 -20 -20 -20 -20 -20 -20 -20
13 12 -13 -11 5 -17 -9 -20 -11 -3 22 21 4 24 29 23 29 25 20 13 22 -10 -20 -18 -17 -20 -20 -20 6 -15 -20 -17 -20 -20 -20 -20 -20 5
-0 14 -9 -3 1 -16 -20 -7 0 3 2 18 19 15 22 29 22 22 15 -9 -20 3 -20 -20 -20 -20 -20 -20 0 -20 -15 -8 -13 -20 -20 -20 -20 -20
10 19 -16 11 5 -20 5 4 -20 -2 1 7 16 22 24 27 27 24 18 -16 -20 -20 -20 1 -6 -5 -1 5 -9 -13 -20 11 -20 -20 -20 -20 -20 -10
19 16 -12 7 -18 10 6 4 -7 -9 15 17 11 29 25 10 28 12 16 3 11 -20 -20 -12 -9 12 8 11 -18 -16 -20 4 -16 -13 -20 7 6 18
22 16 -19 8 5 -3 9 4 -4 -0 8 -20 15 8 16 27 32 28 22 22 20 4 10 13 17 -3 -9 6 18 4 11 -9 -2 6 9 -7 16 21
39 17 20 -20 12 -20 5 21 21 18 23 -3 14 25 14 26 32 30 30 19 14 20 24 23 16 18 27 23 25 20 23 -8 10 16 18 16 17 10
33 17 6 15 5 5 -11 -3 2 7 16 3 -12 10 20 18 29 33 30 28 23 21 23 14 30 13 24 20 30 20 21 22 17 9 9 14 14 -5
38 29 23 18 22 4 12 3 12 24 27 35 36 27 23 24 24 29 35 35 35 30 10 8 12 11 19 15 17 16 7 13 11 15 16 17 16 9
36 35 31 14 28 24 15 5 14 23 23 24 24 19 25 27 18 30 31 31 24 34 34 31 27 21 20 25 7 4 -5 19 20 26 18 11 -1 -20
30 37 40 34 18 18 29 2 21 15 18 11 7 23 25 -5 10 14 14 31 30 33 20 28 23 17 20 26 9 16 18 14 13 9 -1 3 5 1
27 27 27 29 32 20 23 33 22 16 17 18 5 23 34 -11 -4 18 27 12 15 21 20 20 24 27 25 26 28 25 22 18 14 10 11 6 -2 -4
-3 8 13 17 23 23 20 22 23 25 28 27 20 28 24 19 19 26 19 18 21 23 22 25 27 26 27 26 24 22 21 18 14 13 3 -9 -14 -20
-14 -5 -13 7 17 18 17 19 21 22 22 25 25 26 27 25 19 21 21 17 17 19 22 21 20 22 23 24 22 18 7 2 11 13 -0 -20 -19 -20
-20 -20 -20 -20 -16 -3 7 15 15 19 20 21 23 24 25 24 19 20 21 20 16 15 16 18 19 18 18 17 15 14 8 5 -6 -20 -18 -18 -20 -20
-20 -20 -20 -20 -20 -15 -7 -4 6 16 19 19 20 19 18 18 17 15 16 16 10 6 6 3 3 7 9 9 4 -3 -17 -20 -20 -20 -20 -20 -20 -20
-20 -20 -20 -20 -20 -20 -20 -20 -2 9 11 11 14 15 15 14 13 9 6 8 6 -1 -10 -10 -9 -9 -12 -20 -20 -20 -20 -20 -20 -20 -20 -20 -20 -20
-20 -20 -20 -20 -20 -20 -20 -20 -20 -20 -20 -20 -6 2 4 6 5 3 0 -3 -5 -15 -20 -20 -19 -20 -20 -20 -20 -7 -20 -20 -20 -20 -20 -20 -20 -20
-20 -20 -20 -20 -20 -20 -20 -20 -20 -20 -20 -20 -20 -20 -20 -18 -20 -15 -8 -6 -10 -20 -20 -20 -20 -20 -20 -20 -20 -20 -20 -20 -20 -20 -20 -20 -20 -20
-20 -20 -20 -20 -20 -20 -20 -20 -20 -20 -20 -20 -20 -20 -20 -20 -20 -20 -20 -20 -20 -20 -20 -20 -20 -20 -20 -20 -20 -20 -20 -20 -20 -20 -20 -20 -20 -20
-20 -20 -20 -20 -20 -20 -20 -20 -20 -20 -20 -20 -20 -20 -20 -20 -20 -20 -20 -20 -20 -20 -20 -20 -20 -20 -20 -20 -20 -20 -20 -20 -20 -20 -20 -20 -20 -20